Date,TemperatureHighF,TemperatureAvgF,TemperatureLowF,DewpointHighF,DewpointAvgF,DewpointLowF,HumidityHigh,HumidityAvg,HumidityLow,PressureMaxIn,PressureMinIn,WindSpeedMaxMPH,WindSpeedAvgMPH,GustSpeedMaxMPH,PrecipitationSumIn
2014-1-1,30.6,28.6,22.9,28.8,27.1,21.4,96,94,92,30.52,30.41,5,1,5,0.00
2014-1-2,35.4,31.1,26.1,32.1,29.4,24.9,96,93,87,30.41,29.84,5,1,5,0.09
2014-1-3,46.9,38.5,28.6,34.3,26.2,21.8,96,62,41,30.31,29.85,25,3,26,0.00
2014-1-4,34.9,26.8,22.0,23.3,20.2,17.3,84,76,62,30.53,30.30,9,3,11,0.00
2014-1-5,35.2,25.4,20.5,23.9,19.5,16.2,84,78,61,30.69,30.53,13,2,13,0.00
2014-1-6,31.3,25.2,19.8,22.7,20.1,16.3,88,81,68,30.58,30.26,9,1,9,0.00
2014-1-7,33.7,29.1,25.4,26.1,23.7,21.6,88,80,65,30.27,30.12,4,0,4,0.00
2014-1-8,36.0,26.3,20.3,33.9,23.9,18.6,95,91,86,30.22,29.80,4,0,8,0.00
2014-1-9,36.0,28.3,21.2,33.9,26.4,19.5,96,93,82,30.22,29.75,11,1,11,0.03
2014-1-10,52.9,41.2,27.6,36.6,32.5,26.3,97,74,47,29.93,29.68,22,2,22,0.04
2014-1-11,51.7,39.5,35.2,40.1,35.7,30.3,97,87,45,29.67,29.33,24,2,24,0.17
2014-1-12,50.3,43.1,33.0,38.0,34.1,29.5,95,71,57,30.08,29.58,20,2,20,0.01
2014-1-13,55.8,51.3,42.8,38.2,36.5,34.9,77,57,48,30.51,30.08,24,4,24,0.00
2014-1-14,53.0,43.4,31.7,38.7,34.9,28.7,90,73,53,30.58,30.47,15,2,15,0.00
2014-1-15,48.5,35.2,27.3,36.1,30.8,25.7,95,85,61,30.60,30.38,9,1,9,0.00
2014-1-16,42.2,30.9,25.8,35.1,28.3,24.6,96,90,74,30.62,30.49,10,1,10,0.00
2014-1-17,34.5,30.1,25.6,31.6,28.3,24.4,96,93,88,30.51,30.44,9,1,9,0.00
2014-1-18,32.9,31.3,29.5,29.7,28.8,27.0,93,90,84,30.46,30.29,8,1,8,0.00
2014-1-19,35.3,32.4,30.8,29.8,28.7,27.3,93,86,78,30.48,30.24,5,1,5,0.00
2014-1-20,32.8,31.2,29.0,28.5,27.5,26.2,91,86,83,30.62,30.48,9,1,9,0.00
2014-1-21,32.7,30.7,28.9,27.0,26.3,25.2,89,83,77,30.56,30.42,7,1,7,0.00
2014-1-22,35.8,31.3,28.4,32.6,27.4,25.7,91,85,77,30.60,30.41,7,1,7,0.00
2014-1-23,34.4,30.1,25.3,30.7,27.7,23.8,95,91,86,30.70,30.59,9,1,9,0.00
2014-1-24,34.4,32.1,30.3,29.5,28.9,27.9,94,88,80,30.73,30.62,6,0,6,0.00
2014-1-25,32.9,31.7,30.4,28.8,27.3,26.1,90,84,78,30.62,30.41,4,0,4,0.00
2014-1-26,33.3,31.4,30.1,27.1,26.2,25.1,85,81,76,30.41,30.33,6,1,6,0.00
2014-1-27,37.3,33.2,30.7,29.6,27.8,25.5,89,80,72,30.48,30.36,9,2,12,0.00
2014-1-28,35.2,33.1,31.3,30.2,29.5,28.9,95,86,79,30.44,30.14,7,1,7,0.00
2014-1-29,35.4,30.6,22.7,31.0,28.7,20.7,96,93,83,30.14,29.74,8,0,8,0.06
2014-1-30,37.5,28.7,21.7,33.1,26.2,19.7,94,90,80,29.98,29.82,8,1,8,0.21
2014-1-31,39.9,30.4,23.4,30.2,26.4,20.9,95,86,58,30.19,29.98,8,1,8,0.20
2014-2-1,32.4,25.2,19.7,22.2,20.8,18.0,95,83,61,30.26,30.19,11,1,11,0.01
2014-2-2,30.8,26.4,20.8,22.5,21.1,18.2,92,81,69,30.22,30.04,8,1,8,0.00
2014-2-3,29.5,25.7,24.1,22.5,21.4,18.8,89,84,66,30.17,30.05,6,1,6,0.00
2014-2-4,30.7,26.7,21.9,22.3,21.4,18.4,88,80,69,30.17,30.04,3,2,8,0.00
2014-2-5,30.8,15.0,-0.1,22.5,4.8,-6.7,87,65,34,30.71,30.10,11,3,11,0.00
2014-2-6,16.8,8.2,-1.6,10.8,-0.1,-7.8,87,69,52,30.63,29.98,12,3,12,0.00
2014-2-7,23.6,16.0,7.1,13.7,10.4,3.8,89,79,61,30.07,29.96,8,1,8,0.03
2014-2-8,27.3,21.0,16.2,19.1,13.0,9.2,92,72,52,30.28,30.06,11,2,11,0.01
2014-2-9,29.9,24.5,19.5,23.1,20.7,17.6,92,86,73,30.28,30.12,9,0,9,0.09
2014-2-10,32.4,25.5,21.8,25.9,22.3,19.1,94,88,71,30.30,30.08,8,1,8,0.12
2014-2-11,35.0,28.7,18.9,28.5,25.3,16.6,95,87,76,30.18,29.81,9,1,9,0.16
2014-2-12,54.3,36.9,28.5,41.3,30.6,26.6,96,80,42,29.81,29.57,22,2,22,0.21
2014-2-13,49.3,38.9,33.1,41.0,34.0,29.4,96,83,55,30.05,29.71,9,2,15,0.17
2014-2-14,42.2,35.7,30.1,39.2,33.4,28.3,96,92,81,29.97,29.71,10,2,10,0.33
2014-2-15,35.9,31.8,27.1,32.6,29.7,25.4,97,92,78,29.97,29.47,10,1,10,0.09
2014-2-16,44.7,35.3,28.7,36.8,32.3,27.7,97,89,69,29.94,29.57,8,1,8,0.48
2014-2-17,50.9,37.6,30.5,41.6,33.3,28.5,96,85,57,29.93,29.66,13,2,17,0.16
2014-2-18,38.4,32.9,25.8,34.9,30.4,24.1,96,91,74,29.96,29.55,18,2,18,0.23
2014-2-19,44.5,34.1,27.2,33.6,27.5,23.6,96,79,44,30.11,29.76,25,2,25,0.00
2014-2-20,46.4,34.3,8.0,34.5,26.9,-5.0,95,75,35,30.68,29.93,20,3,20,0.03
2014-2-21,46.5,40.1,28.3,27.7,24.0,20.0,75,53,40,30.21,30.03,25,5,25,0.00
2014-2-22,37.4,30.5,24.7,29.5,23.4,17.4,95,75,59,30.22,30.10,10,2,11,0.00
2014-2-23,35.2,32.0,29.9,31.3,29.9,28.1,96,92,83,30.16,30.02,5,0,5,0.14
2014-2-24,32.9,30.1,28.6,28.9,27.7,25.8,96,90,80,30.35,30.16,5,0,5,0.11
2014-2-25,37.7,31.4,27.3,28.5,26.1,21.5,96,82,54,30.47,30.32,6,0,7,0.17
2014-2-26,44.3,34.7,29.9,31.5,28.8,25.8,92,80,55,30.32,29.90,8,1,8,0.00
2014-2-27,43.4,35.7,31.6,34.0,31.3,29.5,94,84,63,29.90,29.72,7,1,7,0.02
2014-2-28,50.6,39.5,33.5,34.2,31.2,21.6,92,74,44,29.80,29.64,10,1,10,0.00
2014-3-1,39.4,27.0,20.6,26.3,17.7,12.4,85,68,50,30.03,29.70,17,2,17,0.00
2014-3-2,27.1,23.1,20.5,20.9,18.2,15.3,92,82,65,30.03,29.88,4,1,6,0.03
2014-3-3,32.6,22.8,14.9,25.7,19.1,12.0,94,86,71,29.97,29.84,7,1,7,0.09
2014-3-4,46.2,30.3,16.5,35.8,26.2,14.7,96,85,65,30.04,29.92,10,1,10,0.04
2014-3-5,48.6,37.7,17.6,42.3,35.8,15.9,97,93,77,30.00,29.51,10,1,10,0.52
2014-3-6,56.5,41.4,34.1,45.4,37.5,32.3,97,87,55,29.97,29.51,11,2,14,0.04
2014-3-7,59.1,42.5,33.2,39.3,33.9,31.3,95,74,37,30.23,29.97,16,3,16,0.00
2014-3-8,48.9,39.3,32.8,39.5,33.2,29.3,93,79,62,30.21,29.88,10,2,10,0.02
2014-3-25,56.6,46.0,39.3,39.0,33.7,29.6,78,63,42,30.04,29.53,6,3,15,0.00
2014-3-26,57.3,44.8,31.1,37.1,32.3,29.0,92,65,37,29.59,29.46,5,2,17,0.00
2014-3-27,59.6,48.1,36.3,38.4,33.0,28.7,85,59,32,29.82,29.50,9,3,19,0.00
2014-3-28,44.6,40.4,37.3,40.4,35.0,30.7,94,81,72,29.88,29.77,6,2,11,0.00
2014-3-29,56.3,42.0,32.8,43.6,35.4,31.5,96,80,47,29.78,29.70,7,2,19,0.00
2014-3-30,56.0,43.2,32.0,35.4,29.6,24.6,90,63,34,29.95,29.78,9,4,24,0.00
2014-3-31,57.0,43.9,30.8,32.7,28.4,24.8,78,57,34,30.00,29.77,6,3,21,0.00
2014-4-1,62.6,50.3,36.5,33.0,30.3,26.3,75,49,26,29.81,29.71,9,3,21,0.00
2014-4-2,61.2,50.0,36.7,30.7,26.9,23.0,66,43,24,29.95,29.80,11,5,26,0.00
2014-4-3,58.9,49.1,38.1,36.0,30.1,24.3,64,49,30,29.96,29.82,8,3,16,0.00
2014-4-4,57.6,47.1,35.7,36.6,30.2,24.3,85,55,29,29.90,29.80,26,4,26,0.00
2014-4-5,59.9,48.9,35.5,40.3,31.8,-99.9,80,54,30,29.97,29.82,19,0,19,0.00
2014-4-6,61.6,50.9,37.1,38.2,34.5,32.0,89,57,33,30.23,29.96,15,4,27,0.00
2014-4-7,73.7,56.3,43.1,46.0,40.9,37.0,83,59,31,30.25,30.05,12,2,12,0.00
2014-4-8,70.3,56.0,41.2,45.9,40.8,37.2,87,60,33,30.08,29.89,23,4,23,0.00
2014-4-9,59.5,52.0,43.8,38.8,26.5,21.3,57,38,28,30.12,29.93,25,6,25,0.00
2014-4-10,65.7,52.2,37.0,31.9,26.2,19.2,64,38,23,30.14,30.00,17,3,17,0.00
2014-4-11,62.7,53.4,42.5,38.3,32.3,28.9,65,46,33,30.01,29.91,29,6,29,0.00
2014-4-12,55.7,43.4,37.3,32.4,30.0,28.0,74,60,41,30.00,29.94,14,4,14,0.00
2014-4-13,48.7,44.4,42.8,28.2,26.5,25.3,51,49,47,30.28,30.24,8,3,8,0.00
2014-4-14,69.8,52.6,35.1,32.9,26.8,20.3,67,41,18,30.28,29.91,16,4,16,0.00
2014-4-15,60.1,53.9,46.9,34.0,27.7,21.2,56,37,29,30.01,29.91,28,6,28,0.00
2014-4-16,59.9,50.4,40.9,40.0,36.0,31.9,72,59,41,30.02,29.90,25,4,25,0.00
2014-4-17,61.2,51.1,41.4,48.0,41.0,36.3,89,70,47,29.90,29.68,15,3,15,0.00
2014-4-18,57.2,48.7,37.8,39.6,28.3,22.9,79,47,29,29.99,29.73,28,5,30,0.00
2014-4-19,61.6,46.4,33.0,38.3,30.8,25.0,77,56,30,30.07,29.81,20,4,20,0.00
2014-4-20,67.0,52.1,38.8,33.7,29.5,23.4,80,45,20,30.26,30.07,17,3,17,0.00
2014-4-21,67.2,52.0,44.0,46.7,35.5,29.4,81,55,30,30.25,29.73,10,2,12,0.00
2014-4-22,56.1,49.1,35.4,46.1,33.6,20.8,91,59,26,29.83,29.63,29,4,29,0.02
2014-4-23,59.1,48.1,35.2,42.3,31.5,24.0,86,56,28,29.85,29.75,22,3,22,0.01
2014-4-24,60.6,49.4,41.8,45.6,38.5,31.9,93,69,39,29.82,29.66,21,3,21,0.07
2014-4-25,59.6,48.9,39.7,35.6,32.8,26.7,80,57,29,29.82,29.70,11,3,17,0.00
2014-4-26,59.8,47.7,34.5,33.6,28.1,20.8,84,51,24,29.74,29.64,20,4,20,0.00
2014-4-27,58.3,49.0,40.7,36.1,29.7,25.1,73,49,30,30.00,29.63,26,5,26,0.00
2014-4-28,65.5,50.6,35.2,34.6,28.2,20.5,81,47,19,30.43,30.00,19,2,19,0.00
2014-4-29,71.2,53.5,37.7,37.7,30.6,25.4,70,46,19,30.61,30.43,13,2,13,0.00
2014-4-30,79.0,58.2,40.4,42.9,33.5,27.0,69,44,16,30.56,30.25,11,2,11,0.00
2014-5-1,84.3,63.9,45.5,52.5,39.1,34.1,67,44,18,30.29,29.91,9,3,10,0.00
2014-5-2,79.3,67.1,55.0,43.6,37.9,32.0,59,37,19,29.96,29.74,23,5,23,0.00
2014-5-3,66.1,58.9,49.5,45.3,37.7,32.2,73,46,31,29.74,29.67,21,4,21,0.00
2014-5-4,62.9,54.3,42.8,43.3,40.6,36.8,84,61,40,29.79,29.67,22,2,22,0.00
2014-5-5,66.3,55.6,43.7,43.0,37.9,33.2,85,55,31,29.92,29.79,26,4,26,0.00
2014-5-6,67.1,55.2,39.5,41.3,35.9,29.5,77,51,26,29.93,29.82,19,3,19,0.00
2014-5-7,72.0,56.0,39.1,39.4,33.3,23.4,79,48,18,29.96,29.77,16,3,16,0.00
2014-5-8,67.5,53.7,44.3,49.1,40.0,33.3,95,63,31,29.82,29.63,17,2,17,0.05
2014-5-9,62.1,52.7,40.7,47.6,37.1,28.3,97,60,30,29.86,29.63,28,4,28,0.01
2014-5-10,65.3,52.4,38.6,38.6,34.4,30.6,79,54,30,30.16,29.86,15,4,23,0.00
2014-5-11,72.3,54.8,39.1,41.4,34.5,24.2,79,51,17,30.32,30.16,12,2,12,0.00
2014-5-12,73.0,56.6,41.1,41.3,32.4,21.7,73,45,15,30.44,30.29,12,3,12,0.00
2014-5-13,81.4,61.0,44.2,46.7,35.6,27.5,67,43,17,30.43,30.23,11,2,11,0.00
2014-5-14,88.4,67.3,48.7,51.0,43.6,34.7,72,47,15,30.33,30.04,12,2,12,0.00
2014-5-15,88.3,69.7,51.8,59.3,45.2,39.3,68,44,20,30.09,29.85,9,2,9,0.00
2014-5-16,82.2,68.5,55.0,50.5,42.4,28.4,72,42,15,29.91,29.78,23,3,23,0.00
2014-5-17,71.7,60.1,47.4,48.5,40.2,34.4,80,51,28,29.89,29.75,22,3,22,0.00
2014-5-18,73.0,58.8,44.5,43.2,38.0,34.1,79,48,27,29.78,29.65,22,4,22,0.00
2014-5-19,71.7,58.6,44.1,47.5,42.1,38.0,85,58,32,29.96,29.76,17,2,17,0.00
2014-5-20,79.5,61.8,44.4,48.2,41.7,35.3,80,52,21,30.03,29.89,16,3,16,0.00
2014-5-21,80.5,64.6,47.7,48.1,42.5,34.5,82,49,22,30.01,29.89,22,3,22,0.00
2014-5-22,86.8,69.0,49.6,52.0,45.5,38.4,78,48,19,30.01,29.85,24,3,24,0.00
2014-5-23,75.5,65.8,55.9,53.2,47.2,43.9,71,52,37,29.96,29.84,25,4,25,0.00
2014-5-24,75.5,62.7,48.0,47.4,41.7,33.1,83,51,23,30.03,29.93,19,4,19,0.00
2014-5-25,69.9,57.4,45.1,45.8,41.5,37.3,82,57,32,30.00,29.86,18,3,18,0.00
2014-5-26,68.7,58.0,44.6,47.0,39.0,32.3,85,53,29,30.08,29.91,30,5,30,0.00
2014-5-27,72.8,58.6,42.6,40.6,36.5,29.7,75,47,21,30.09,29.89,19,3,19,0.00
2014-5-28,66.7,56.0,43.0,42.6,38.1,35.4,81,53,33,30.03,29.90,26,4,26,0.00
2014-5-29,73.7,58.8,46.9,43.4,40.0,35.5,84,54,28,30.09,30.01,17,3,17,0.00
2014-5-30,77.2,60.4,43.2,51.3,40.4,34.3,73,51,22,30.10,29.87,10,2,10,0.00
2014-5-31,81.5,65.6,48.1,47.9,41.5,33.6,72,45,19,29.99,29.82,19,3,19,0.00
2014-6-1,84.5,67.5,50.2,60.7,45.1,36.3,78,49,20,29.96,29.78,16,2,16,0.00
2014-6-2,86.4,69.1,51.9,52.0,46.1,34.6,78,49,18,29.89,29.66,11,2,14,0.00
2014-6-3,81.3,69.0,55.5,52.6,45.0,40.3,70,45,24,29.91,29.73,25,5,25,0.00
2014-6-4,80.3,66.3,49.7,46.6,38.7,28.7,69,41,16,29.97,29.85,25,4,25,0.00
2014-6-5,79.4,65.3,47.7,43.8,37.0,27.2,71,38,16,30.05,29.89,19,3,19,0.00
2014-6-6,79.8,65.8,46.3,44.9,36.4,22.1,72,38,13,30.08,29.91,24,4,24,0.00
2014-6-7,80.7,67.9,50.8,47.3,41.5,36.3,66,40,23,30.01,29.92,31,5,31,0.00
2014-6-8,81.6,68.1,50.9,52.3,45.2,39.8,76,47,25,30.07,29.90,22,4,22,0.00
2014-6-9,76.3,67.9,54.7,48.6,41.4,35.5,74,40,25,29.96,29.86,27,6,27,0.00
2014-6-10,70.2,63.2,47.7,46.3,39.8,34.6,74,43,33,29.95,29.88,32,5,32,0.00
2014-6-11,80.2,62.8,44.6,52.5,42.2,36.8,77,51,24,30.03,29.76,5,2,15,0.00
2014-6-12,81.9,66.1,55.6,48.5,43.9,41.5,66,46,26,29.76,29.55,10,4,23,0.00
2014-6-13,63.4,57.0,50.4,55.4,48.4,43.7,95,74,52,29.94,29.69,21,2,21,0.12
2014-6-14,73.3,61.8,47.9,48.8,43.9,39.6,86,54,32,29.94,29.83,28,3,28,0.00
2014-6-15,71.8,60.2,49.3,50.9,41.5,33.9,86,54,27,29.82,29.62,23,3,23,0.00
2014-6-16,64.6,54.8,46.8,51.5,44.3,36.1,95,71,38,29.88,29.67,17,2,17,0.17
2014-6-17,73.7,59.0,45.9,53.6,47.1,43.9,95,69,37,29.94,29.87,19,2,19,0.01
2014-6-18,80.5,64.1,47.9,53.3,46.7,41.9,89,58,27,29.91,29.79,22,2,23,0.00
2014-6-19,54.2,52.1,49.6,48.8,42.7,40.0,93,70,62,29.87,29.72,8,2,8,0.00
2014-6-20,70.7,65.1,53.0,49.4,38.8,29.9,80,39,25,30.02,29.83,27,6,27,0.00
2014-6-21,79.9,61.1,42.4,49.5,38.4,30.3,77,48,19,30.07,29.89,7,1,8,0.00
2014-6-22,88.5,68.2,50.3,53.4,43.9,33.6,71,46,15,30.02,29.82,10,2,10,0.00
2014-6-23,89.8,73.9,57.4,59.1,48.5,39.4,69,44,18,29.92,29.75,16,3,16,0.00
2014-6-24,71.8,65.0,56.8,54.7,50.0,45.4,91,60,42,29.93,29.85,20,2,20,0.05
2014-6-25,86.5,71.5,51.5,54.5,46.3,37.1,75,44,19,29.97,29.65,9,2,12,0.00
2014-6-26,79.8,69.4,59.1,59.0,50.3,47.1,68,52,37,29.68,29.61,18,3,19,0.00
2014-6-27,75.6,67.6,58.6,56.1,48.7,43.9,79,52,36,29.75,29.64,23,3,23,0.00
2014-6-28,75.8,65.7,55.1,51.7,46.0,41.8,83,51,32,29.91,29.75,27,4,27,0.00
2014-6-29,73.0,64.8,53.7,46.8,43.9,41.1,72,48,34,30.11,29.90,26,5,26,0.00
2014-6-30,85.7,66.3,47.8,53.0,43.9,38.2,75,49,20,30.19,30.00,15,2,15,0.00
2014-7-1,93.6,73.5,54.4,53.7,46.1,36.9,66,42,15,30.06,29.74,14,3,14,0.00
2014-7-2,96.2,75.0,59.5,67.0,52.3,44.8,75,47,22,29.82,29.67,13,2,13,0.00
2014-7-3,83.7,70.1,52.7,57.3,45.0,22.9,85,48,12,29.85,29.75,23,3,23,0.00
2014-7-4,86.7,70.6,49.4,49.4,42.3,29.5,79,42,14,29.91,29.77,20,3,20,0.00
2014-7-5,87.3,73.7,58.3,56.0,46.9,32.1,70,42,20,29.98,29.87,22,3,24,0.00
2014-7-6,88.8,76.2,61.8,61.1,54.3,51.3,76,49,29,30.02,29.93,26,4,27,0.00
2014-7-7,94.3,76.9,58.8,60.4,52.4,46.4,73,46,22,30.07,29.82,13,2,13,0.00
2014-7-8,98.7,79.4,62.2,64.8,52.6,36.7,72,44,13,29.92,29.73,18,3,18,0.00
2014-7-9,94.6,78.1,61.2,56.6,48.2,36.3,79,39,14,29.82,29.66,26,5,27,0.00
2014-7-10,92.4,73.5,56.5,60.6,46.8,32.5,71,42,14,29.81,29.66,14,2,14,0.00
2014-7-11,94.2,75.8,60.8,69.0,52.1,37.7,64,46,17,29.91,29.79,11,2,11,0.00
2014-7-12,98.8,77.3,61.6,73.4,53.6,36.2,72,46,12,30.03,29.90,12,2,12,0.00
2014-7-13,95.8,80.3,64.0,74.0,56.1,37.7,69,45,16,30.04,29.86,30,2,30,0.00
2014-7-14,95.5,80.2,66.8,70.2,56.0,47.0,72,46,21,29.94,29.86,24,3,24,0.01
2014-7-15,101.3,82.4,63.8,67.6,56.8,46.5,77,47,16,29.96,29.77,21,3,21,0.00
2014-7-16,101.6,83.7,64.3,62.7,49.8,33.8,65,35,11,29.85,29.66,23,4,23,0.00
2014-7-17,90.4,78.6,59.5,58.0,48.9,42.0,74,39,19,29.75,29.66,31,5,31,0.00
2014-7-18,89.5,76.4,56.9,60.6,49.1,40.0,72,41,22,29.85,29.75,34,4,34,0.00
2014-7-19,84.4,76.3,67.1,59.4,55.5,50.9,70,49,37,29.84,29.74,30,5,30,0.00
2014-7-20,78.2,70.3,59.1,51.4,45.3,41.1,75,42,28,29.79,29.68,25,5,25,0.00
2014-7-21,85.3,69.8,50.8,51.8,45.2,39.3,81,46,22,29.89,29.75,13,2,13,0.00
2014-7-22,74.8,65.5,60.2,63.1,56.4,46.0,94,74,52,30.04,29.88,11,2,11,0.10
2014-7-23,69.7,63.2,51.2,64.6,56.8,42.9,96,81,48,30.02,29.82,21,2,21,0.27
2014-7-24,72.1,59.1,46.4,52.4,47.9,44.2,93,69,40,30.09,29.97,22,3,22,0.00
2014-7-25,84.0,65.8,49.8,61.4,47.2,41.2,88,56,23,30.08,29.91,14,2,14,0.00
2014-7-26,90.3,70.9,54.1,61.4,48.8,43.2,77,50,21,30.07,29.94,11,2,11,0.00
2014-7-27,92.3,73.3,56.3,70.3,52.7,43.4,74,51,23,30.11,29.92,10,2,10,0.00
2014-7-28,100.8,79.7,61.0,67.9,52.9,39.8,69,44,14,30.03,29.84,15,2,16,0.00
2014-7-29,102.5,80.9,62.0,61.8,50.7,34.9,68,41,11,29.98,29.81,19,3,19,0.00
2014-7-30,101.0,79.3,59.9,61.0,47.1,31.2,69,37,9,29.95,29.82,22,3,22,0.00
2014-7-31,102.5,78.0,58.6,58.8,45.0,25.4,68,37,8,29.98,29.81,11,3,11,0.00
2014-8-1,98.2,78.1,63.6,66.6,49.0,34.6,66,39,12,29.94,29.81,17,3,17,0.00
2014-8-2,92.6,75.4,61.5,71.9,53.9,43.9,78,50,21,29.91,29.82,21,3,21,0.03
2014-8-3,96.5,76.1,60.9,71.6,57.7,48.5,87,57,20,29.97,29.68,11,2,27,0.05
2014-8-4,99.2,79.3,62.6,61.0,49.6,29.2,68,41,9,29.90,29.71,21,3,21,0.00
2014-8-5,99.2,78.1,60.5,55.9,46.9,20.1,68,38,6,29.86,29.73,19,3,19,0.00
2014-8-6,91.0,74.2,55.2,60.2,50.1,43.6,76,47,23,29.91,29.80,19,3,19,0.00
2014-8-7,90.3,73.6,56.2,54.9,47.9,34.4,80,45,15,29.90,29.78,27,4,27,0.00
2014-8-8,86.2,71.6,57.1,57.2,48.5,36.8,76,49,21,29.92,29.82,23,3,23,0.00
2014-8-9,91.5,70.9,55.3,62.2,49.5,38.3,75,51,16,30.03,29.90,10,2,10,0.00
2014-8-10,96.0,73.7,58.6,67.6,50.4,37.0,68,47,13,30.08,29.89,11,2,11,0.00
2014-8-11,97.7,75.0,60.1,66.0,51.6,41.8,68,46,16,30.00,29.75,12,2,12,0.00
2014-8-12,92.9,78.8,67.3,69.4,57.9,43.5,95,52,25,29.83,29.58,27,2,27,0.01
2014-8-13,83.5,72.1,65.4,68.0,64.3,58.4,98,79,45,29.85,29.77,12,1,12,0.04
2014-8-14,73.3,65.6,60.4,64.8,61.5,58.3,96,87,67,29.95,29.84,12,1,12,0.00
2014-8-15,77.5,65.5,57.8,64.8,58.8,55.8,94,80,53,29.98,29.89,15,2,15,0.00
2014-8-16,86.5,70.8,58.6,62.3,56.7,52.3,90,65,32,30.00,29.89,13,2,13,0.00
2014-8-17,91.3,73.2,59.7,65.1,58.8,54.4,86,64,30,30.02,29.87,8,2,8,0.00
2014-8-18,94.8,75.9,61.6,66.8,58.3,50.0,84,59,23,29.94,29.66,12,3,12,0.00
2014-8-19,87.8,76.6,64.5,64.0,56.8,50.6,84,54,29,29.66,29.57,25,4,25,0.00
2014-8-20,85.0,73.3,58.4,59.2,52.1,42.9,82,51,25,29.81,29.63,23,2,23,0.00
2014-8-21,84.3,68.2,56.0,58.9,52.1,41.9,83,59,31,29.90,29.75,19,2,19,0.00
2014-8-22,79.4,65.2,54.1,55.7,51.9,47.9,86,64,35,30.06,29.90,23,3,23,0.00
2014-8-23,84.3,67.0,53.2,57.1,51.1,43.6,85,61,26,30.13,29.94,10,2,10,0.00
2014-8-24,75.7,63.5,56.1,62.7,54.2,49.3,88,73,47,29.97,29.89,9,2,9,0.01
2014-8-25,85.7,67.0,52.9,62.1,52.6,46.9,85,64,30,30.03,29.86,11,2,11,0.01
2014-8-26,91.7,71.7,56.0,62.5,53.7,48.3,79,57,25,30.02,29.84,9,2,10,0.00
2014-8-27,93.0,76.5,61.3,64.0,56.9,49.0,81,55,23,29.94,29.80,22,3,22,0.00
2014-8-28,83.9,72.1,58.6,59.4,53.1,46.9,88,55,28,29.92,29.85,26,3,26,0.00
2014-8-29,78.5,65.9,55.9,54.8,48.5,44.5,81,56,32,29.88,29.77,24,4,24,0.00
2014-8-30,74.0,63.5,53.8,59.0,51.6,47.0,85,67,43,29.83,29.75,28,2,28,0.02
2014-8-31,73.3,65.7,54.7,49.4,44.4,40.6,69,47,32,29.94,29.83,19,5,20,0.00
2014-9-1,78.0,66.1,49.9,49.5,44.8,39.9,77,48,30,30.01,29.85,25,4,25,0.00
2014-9-2,75.7,66.2,54.1,52.3,46.7,40.7,80,51,33,29.86,29.64,22,4,26,0.00
2014-9-3,72.3,62.4,51.1,50.4,44.0,38.7,77,53,31,30.05,29.71,19,3,22,0.00
2014-9-4,79.6,60.5,46.3,51.6,44.1,38.2,80,59,23,30.14,30.00,11,2,11,0.00
2014-9-5,83.7,62.9,48.9,52.2,43.0,33.8,73,52,18,30.22,30.05,10,2,11,0.00
2014-9-6,88.4,65.1,49.7,54.3,43.1,35.3,73,48,17,30.13,29.85,11,2,11,0.00
2014-9-7,90.6,69.3,51.0,51.2,41.7,30.7,65,42,12,29.89,29.66,18,4,18,0.00
2014-9-8,80.7,68.3,53.0,50.3,45.8,40.4,79,48,28,29.78,29.65,23,4,23,0.00
2014-9-9,78.8,64.3,52.3,50.7,45.1,40.7,75,52,29,30.02,29.77,16,3,18,0.00
2014-9-10,68.9,58.9,50.4,48.3,37.8,26.0,83,49,21,30.34,30.03,16,3,18,0.00
2014-9-11,70.2,52.3,40.6,40.4,31.6,24.0,70,49,19,30.48,30.27,17,2,17,0.00
2014-9-12,76.2,53.6,38.1,42.6,30.2,24.4,68,44,15,30.29,30.01,10,3,11,0.00
2014-9-13,81.5,57.5,43.6,47.9,34.9,27.0,74,46,17,30.12,29.88,12,3,12,0.00
2014-9-14,83.7,60.3,45.9,51.5,38.9,33.3,74,49,17,30.02,29.88,11,2,12,0.00
2014-9-15,84.4,62.7,46.9,55.0,41.0,34.3,71,48,18,30.01,29.81,10,2,10,0.00
2014-9-16,86.2,66.2,52.7,60.9,46.1,38.0,70,51,22,29.88,29.68,12,2,12,0.00
2014-9-17,83.4,67.5,57.5,60.3,50.5,43.4,76,56,27,29.74,29.55,10,2,10,0.00
2014-9-18,76.4,67.5,58.0,55.8,52.1,49.2,83,60,40,29.82,29.57,23,4,26,0.00
2014-9-19,80.8,69.7,57.8,58.3,52.5,49.8,84,56,36,30.01,29.81,18,3,18,0.00
2014-9-20,85.9,65.5,53.5,56.4,50.2,46.4,80,61,27,30.14,29.96,10,2,10,0.00
2014-9-21,86.6,66.5,52.8,60.5,49.0,43.9,76,56,25,29.99,29.76,10,2,10,0.00
2014-9-22,79.5,66.4,55.6,64.2,52.5,46.8,77,62,37,29.85,29.77,10,2,11,0.00
2014-9-23,67.4,61.8,54.1,61.9,53.8,47.1,94,76,55,29.85,29.76,11,2,12,0.00
2014-9-24,64.1,60.4,58.4,60.4,57.9,55.5,96,91,81,29.87,29.72,7,1,7,0.01
2014-9-25,62.5,57.2,50.7,58.3,55.5,48.7,97,94,79,29.90,29.81,7,1,7,0.17
2014-9-26,68.8,54.7,47.3,56.3,50.1,45.7,95,85,59,30.06,29.90,7,2,7,0.01
2014-9-27,78.8,58.3,46.0,56.1,48.8,43.7,93,74,35,30.12,29.96,9,2,9,0.00
2014-9-28,78.0,60.4,49.8,54.1,48.5,45.3,86,68,34,30.05,29.84,10,2,10,0.00
2014-9-29,74.3,60.4,48.0,53.2,47.3,43.8,86,65,39,29.85,29.71,24,4,24,0.00
2014-9-30,66.0,58.3,48.3,43.4,41.0,38.6,73,53,40,30.05,29.79,17,4,25,0.00
2014-10-1,67.3,55.9,42.8,44.5,39.0,36.4,83,56,35,30.11,30.01,26,3,30,0.00
2014-10-2,69.7,54.5,44.7,46.6,38.7,34.2,80,58,31,30.33,30.09,11,2,11,0.00
2014-10-3,68.8,53.4,42.6,50.2,39.7,35.0,81,62,33,30.38,30.19,10,2,11,0.00
2014-10-4,50.3,48.4,46.6,42.0,40.1,38.8,80,73,66,30.21,30.17,10,3,10,0.00
2014-10-5,79.3,59.9,47.2,57.3,51.0,45.8,95,75,43,30.14,29.95,6,1,11,0.00
2014-10-6,86.5,68.1,49.0,58.7,51.3,45.1,87,58,33,29.97,29.82,9,3,19,0.00
2014-10-7,84.0,65.4,51.9,55.1,50.7,46.9,84,62,28,29.90,29.74,5,2,15,0.00
2014-10-8,72.8,61.9,55.5,55.0,47.8,41.0,81,61,38,29.96,29.80,5,2,12,0.00
2014-10-9,75.9,57.5,46.5,52.7,42.1,36.9,77,58,33,30.04,29.93,6,3,11,0.00
2014-10-10,77.8,58.8,45.4,48.7,43.1,39.2,80,59,28,30.03,29.89,7,3,18,0.00
2014-10-11,67.4,57.0,49.0,48.9,43.4,40.4,87,62,40,30.04,29.86,17,4,28,0.01
2014-10-12,64.6,55.3,43.2,48.2,41.8,37.8,87,63,39,30.17,30.04,18,2,18,0.00
2014-10-13,71.7,55.1,46.2,48.0,43.2,39.8,83,66,34,30.05,29.61,8,1,8,0.00
2014-10-14,66.7,58.0,47.8,47.1,43.2,40.0,80,59,38,29.79,29.56,22,2,22,0.00
2014-10-15,61.8,51.4,40.8,54.2,46.4,38.7,95,84,52,29.97,29.53,12,2,12,0.06
2014-10-16,60.5,49.1,39.9,46.2,41.5,37.4,93,76,53,30.12,29.97,11,2,11,0.00
2014-10-17,61.4,51.1,46.3,50.7,46.2,41.4,95,84,49,30.01,29.86,8,2,19,0.06
2014-10-18,57.4,52.5,47.3,51.7,49.3,46.1,96,89,76,30.01,29.91,6,1,6,0.05
2014-10-19,69.2,56.1,49.0,55.8,50.7,46.9,96,83,55,29.98,29.73,9,1,9,0.00
2014-10-20,57.0,51.8,47.6,53.6,49.4,45.4,95,92,84,29.77,29.69,9,2,10,0.00
2014-10-21,64.4,50.8,41.7,48.8,43.1,39.4,96,78,42,29.90,29.77,16,2,16,0.00
2014-10-22,50.9,47.7,44.1,48.8,45.4,40.1,97,92,83,29.88,29.63,9,1,9,0.00
2014-10-23,58.2,47.3,38.7,50.2,43.3,36.7,97,87,56,29.99,29.67,11,2,11,0.09
2014-10-24,54.2,46.0,38.6,46.0,41.2,36.5,96,84,64,30.10,29.96,9,1,9,0.08
2014-10-25,53.4,48.5,45.0,50.2,46.3,43.0,97,92,74,29.96,29.39,9,1,9,0.03
2014-10-26,58.6,48.9,37.5,45.4,38.5,33.6,95,69,44,30.08,29.57,20,2,20,0.07
2014-10-27,55.9,43.3,35.2,39.9,35.2,31.4,88,74,46,30.19,30.07,9,2,9,0.05
2014-10-28,45.3,43.1,40.6,41.3,39.8,38.0,95,88,76,30.11,29.98,8,2,10,0.04
2014-10-29,53.7,46.7,39.8,47.8,43.2,38.1,95,88,79,30.19,30.00,8,2,8,0.32
2014-10-30,49.0,47.7,45.8,47.7,45.8,42.6,97,93,82,30.19,29.80,8,2,8,0.48
2014-10-31,52.8,48.3,42.8,51.6,47.4,41.4,98,96,93,29.80,29.69,9,1,9,0.37
2014-11-1,55.4,47.1,40.4,45.6,39.3,33.3,95,76,47,29.89,29.72,25,3,26,0.01
2014-11-2,58.5,47.3,35.5,42.9,37.5,32.9,91,71,43,30.06,29.89,17,2,17,0.00
2014-11-3,52.4,45.3,39.4,44.5,41.3,37.0,95,86,72,30.16,30.05,10,1,10,0.00
2014-11-4,65.0,50.7,43.4,51.8,43.2,38.3,97,78,45,30.25,29.93,26,2,26,0.02
2014-11-5,55.4,49.7,43.3,47.7,43.6,38.6,96,80,65,30.28,30.13,18,1,20,0.05
2014-11-6,59.6,52.9,47.6,53.2,46.0,32.9,97,80,43,30.18,29.83,29,2,29,0.01
2014-11-7,59.6,46.7,38.4,41.2,37.3,32.1,86,71,43,30.39,30.17,15,2,16,0.00
2014-11-8,51.9,40.6,34.6,41.8,36.1,32.2,94,84,65,30.38,30.02,10,2,10,0.00
2014-11-9,59.1,43.7,33.9,47.8,37.0,32.3,97,79,49,30.03,29.63,22,2,22,0.03
2014-11-10,51.7,40.1,32.8,33.8,29.0,22.6,85,66,36,30.27,29.96,15,2,15,0.00
2014-11-11,36.1,29.7,19.9,27.3,15.7,1.7,86,59,25,30.66,30.27,15,2,17,0.00
2014-11-12,33.7,22.5,16.7,14.6,10.8,3.8,84,63,30,30.66,30.44,11,2,11,0.00
2014-11-13,36.0,24.8,15.2,17.8,10.8,8.2,74,56,34,30.44,30.14,9,3,10,0.00
2014-11-14,35.9,23.1,15.7,18.0,11.9,7.9,73,63,38,30.45,30.17,11,3,11,0.00
2014-11-15,35.8,23.0,16.8,19.4,14.2,10.6,77,69,44,30.69,30.45,12,4,12,0.00
2014-11-16,34.9,23.5,16.4,21.2,16.5,11.8,83,75,55,30.75,30.66,10,2,10,0.00
2014-11-17,35.4,24.0,17.6,23.6,18.4,13.8,86,79,61,30.70,30.49,10,2,10,0.00
2014-11-18,35.9,26.5,18.9,25.6,21.0,15.2,86,80,65,30.49,30.34,10,2,10,0.00
2014-11-19,38.8,29.9,23.7,26.9,24.4,20.9,90,80,59,30.35,30.10,7,0,7,0.00
2014-11-20,42.6,32.5,20.1,30.4,26.8,16.1,93,80,59,30.46,30.05,4,1,9,0.00
2014-11-21,34.0,30.5,26.9,31.0,28.3,24.9,96,91,81,30.06,29.44,3,0,4,0.00
2014-11-22,46.7,35.4,23.2,40.0,31.8,21.7,97,87,59,30.07,29.45,18,1,18,0.30
2014-11-23,45.0,35.2,29.3,38.3,32.0,27.3,96,88,66,30.28,30.02,18,2,18,0.12
2014-11-24,35.2,32.2,30.4,30.0,29.1,27.7,92,88,81,30.36,30.29,11,2,11,0.00
2014-11-25,37.3,34.7,33.7,36.5,33.9,32.9,97,97,95,30.31,30.05,4,1,4,0.51
2014-11-26,41.9,36.7,33.8,38.5,35.3,33.0,98,95,86,30.24,29.97,4,0,4,0.02
2014-11-27,44.8,37.8,34.2,42.0,36.6,32.9,98,95,90,29.98,29.65,12,2,12,0.00
2014-11-28,54.5,41.2,32.0,47.0,38.4,31.2,98,90,63,29.65,29.25,16,2,16,0.01
2014-11-29,34.6,23.2,13.2,29.0,14.5,6.1,83,69,57,30.31,29.37,10,3,22,0.00
2014-11-30,22.6,15.2,10.5,12.9,9.3,5.9,86,77,59,30.50,30.31,8,2,8,0.00
2014-12-1,23.8,15.4,8.9,14.2,10.6,6.2,90,81,61,30.39,30.25,7,1,8,0.00
2014-12-2,27.2,17.8,12.7,18.6,13.6,9.7,90,83,68,30.45,30.30,7,2,10,0.00
2014-12-3,30.0,23.0,15.3,24.4,18.9,12.4,90,84,75,30.29,30.01,9,2,9,0.00
2014-12-4,34.2,30.7,28.0,27.8,25.2,22.8,85,80,73,30.17,30.00,4,0,5,0.00
2014-12-5,35.4,32.3,29.8,31.4,29.5,26.8,94,89,83,30.25,30.10,4,0,4,0.02
2014-12-6,39.3,35.3,32.6,37.3,34.0,31.3,97,95,91,30.33,30.01,7,0,7,0.12
2014-12-7,39.5,36.1,34.1,36.4,34.5,32.7,98,94,83,30.41,30.29,6,1,6,0.00
2014-12-8,40.6,37.6,35.3,37.7,35.9,34.2,97,94,89,30.30,30.11,4,1,6,0.00
2014-12-9,39.9,37.4,35.8,38.5,36.6,35.0,98,97,94,30.11,29.95,8,1,8,0.10
2014-12-10,43.2,39.1,36.5,42.4,37.9,35.7,98,96,93,29.97,29.45,19,2,19,0.18
2014-12-11,40.4,38.2,34.7,39.1,37.0,33.7,98,95,93,29.66,29.34,12,3,12,0.20
2014-12-12,43.5,38.5,35.2,40.8,37.0,34.3,97,94,90,29.76,29.54,12,3,12,0.00
2014-12-13,40.9,33.9,31.1,35.2,31.3,28.6,97,90,79,30.31,29.96,9,3,9,0.00
2014-12-14,37.2,29.1,24.8,31.3,26.7,23.3,96,91,78,30.37,30.30,10,2,10,0.00
2014-12-15,36.4,32.5,27.3,32.6,29.7,25.1,95,90,82,30.30,30.06,8,1,8,0.00
2014-12-16,35.8,33.7,32.9,32.7,31.6,30.9,95,92,85,30.15,30.01,7,1,7,0.02
2014-12-17,34.2,33.7,33.4,31.6,31.3,31.1,91,91,90,30.13,30.12,0,0,2,0.00
2014-12-18,38.7,35.9,34.1,37.5,35.2,33.6,98,97,93,30.05,29.94,6,0,6,0.08
2014-12-19,36.5,34.6,33.1,35.6,33.8,32.0,98,97,94,30.04,29.89,8,1,8,0.09
2014-12-20,35.0,33.3,32.6,34.4,32.7,32.1,98,98,95,30.01,29.50,6,1,6,0.55
2014-12-21,45.4,38.6,33.1,42.8,37.3,32.6,98,95,86,30.07,29.51,14,4,14,0.53
2014-12-22,50.0,39.0,31.7,37.3,32.8,29.9,97,80,49,30.40,30.05,20,3,20,0.01
2014-12-23,43.1,36.8,33.5,36.1,32.7,30.1,94,85,69,30.39,29.94,8,2,8,0.00
2014-12-24,46.1,37.6,33.3,36.2,31.0,26.2,95,79,49,29.95,29.74,22,2,22,0.00
2014-12-25,47.2,36.4,28.2,29.1,25.4,22.4,83,65,40,30.25,29.95,22,3,22,0.00
2014-12-26,36.4,29.7,25.5,26.6,23.1,19.6,85,76,61,30.37,30.25,8,3,11,0.00
2014-12-27,36.6,30.8,26.8,32.3,26.9,23.1,95,85,70,30.31,29.98,10,2,10,0.00
2014-12-28,36.7,30.7,21.9,31.9,28.1,19.9,97,90,77,30.23,30.01,7,1,8,0.08
2014-12-29,32.7,30.4,19.2,31.5,24.3,11.8,97,79,53,30.84,30.23,17,1,17,0.02
2014-12-30,22.3,14.8,10.3,13.2,9.8,5.4,88,80,66,31.03,30.84,12,3,12,0.00
2014-12-31,24.7,15.0,10.1,14.6,10.4,7.1,89,82,63,30.90,30.64,9,2,9,0.02
2015-1-1,24.4,16.9,12.6,17.0,12.4,8.5,90,82,71,30.64,30.43,11,2,11,0.00
2015-1-2,26.5,19.7,15.2,19.0,15.5,11.9,90,84,72,30.44,30.14,9,1,9,0.00